When you browse on this site, cookies collect data to enhance your experience and personalize the content and advertising you see.
Visit our Privacy Policy to learn more. By continuing to use the site, you agree to this use of cookies and data.

Hourly Weather Neratnoe

Today, 6 August, Thursday

Time Temperature Precipitation Wind Pressure Humidity
00:00 +16°C° 0 mm 0 mps 752 mmHg 82%
01:00 +16°C° 0 mm 0 mps 752 mmHg 83%
02:00 +16°C° 0 mm 0 mps 752 mmHg 83%
03:00 +16°C° 0 mm 0 mps 752 mmHg 83%
04:00 +16°C° 0 mm 0 mps 752 mmHg 83%
05:00 +16°C° 0 mm 0 mps 752 mmHg 82%
06:00 +18°C° 0 mm 0 mps 752 mmHg 77%
07:00 +22°C° 0 mm 1 mps 752 mmHg 72%
08:00 +24°C° 0 mm 1 mps 753 mmHg 68%
09:00 +25°C° 0 mm 1 mps 753 mmHg 65%
10:00 +26°C° 0 mm 1 mps 752 mmHg 62%
11:00 +27°C° 0 mm 1 mps 752 mmHg 59%
12:00 +27°C° 0.1 mm 2 mps 752 mmHg 59%
13:00 +27°C° 0.1 mm 2 mps 752 mmHg 59%
14:00 +28°C° 0.1 mm 2 mps 753 mmHg 60%
15:00 +27°C° 0.5 mm 2 mps 752 mmHg 65%
16:00 +27°C° 0.5 mm 2 mps 752 mmHg 70%
17:00 +26°C° 0.5 mm 2 mps 752 mmHg 74%
18:00 +25°C° 0.2 mm 2 mps 752 mmHg 80%
19:00 +23°C° 0.2 mm 2 mps 752 mmHg 85%
20:00 +21°C° 0.2 mm 2 mps 752 mmHg 91%
21:00 +20°C° 0 mm 3 mps 753 mmHg 92%
22:00 +19°C° 0 mm 3 mps 753 mmHg 93%
23:00 +19°C° 0 mm 3 mps 753 mmHg 94%

Tomorrow, 7 August, Friday

Time Temperature Precipitation Wind Pressure Humidity
00:00 +18°C° 0 mm 3 mps 753 mmHg 94%
01:00 +17°C° 0 mm 3 mps 753 mmHg 94%
02:00 +17°C° 0 mm 3 mps 753 mmHg 94%
03:00 +17°C° 0 mm 3 mps 753 mmHg 94%
04:00 +16°C° 0 mm 3 mps 754 mmHg 94%
05:00 +15°C° 0 mm 4 mps 754 mmHg 95%
06:00 +18°C° 0 mm 4 mps 754 mmHg 90%
07:00 +19°C° 0 mm 4 mps 754 mmHg 85%
08:00 +20°C° 0 mm 5 mps 754 mmHg 80%
09:00 +21°C° 0 mm 5 mps 754 mmHg 73%
10:00 +22°C° 0 mm 5 mps 754 mmHg 67%
11:00 +23°C° 0 mm 5 mps 754 mmHg 61%
12:00 +23°C° 0 mm 5 mps 754 mmHg 59%
13:00 +25°C° 0 mm 5 mps 754 mmHg 58%
14:00 +25°C° 0 mm 5 mps 754 mmHg 57%
15:00 +25°C° 0 mm 4 mps 754 mmHg 60%
16:00 +23°C° 0 mm 4 mps 754 mmHg 64%
17:00 +24°C° 0 mm 3 mps 754 mmHg 67%
18:00 +22°C° 0 mm 3 mps 754 mmHg 70%
19:00 +20°C° 0 mm 3 mps 754 mmHg 73%
20:00 +19°C° 0 mm 3 mps 754 mmHg 76%
21:00 +18°C° 0 mm 2 mps 754 mmHg 78%
22:00 +17°C° 0 mm 2 mps 754 mmHg 80%
23:00 +17°C° 0 mm 2 mps 754 mmHg 83%

Day after tomorrow, 8 August, Saturday

Time Temperature Precipitation Wind Pressure Humidity
00:00 +16°C° 0 mm 2 mps 754 mmHg 84%
01:00 +16°C° 0 mm 2 mps 754 mmHg 86%
02:00 +15°C° 0 mm 2 mps 754 mmHg 87%
03:00 +15°C° 0 mm 2 mps 754 mmHg 88%
04:00 +15°C° 0 mm 2 mps 754 mmHg 88%
05:00 +15°C° 0 mm 2 mps 754 mmHg 88%
06:00 +17°C° 0 mm 2 mps 754 mmHg 83%
07:00 +18°C° 0 mm 3 mps 754 mmHg 77%
08:00 +20°C° 0 mm 3 mps 754 mmHg 71%
09:00 +21°C° 0 mm 3 mps 754 mmHg 66%
10:00 +22°C° 0 mm 3 mps 754 mmHg 61%
11:00 +24°C° 0 mm 3 mps 754 mmHg 56%
12:00 +25°C° 0 mm 3 mps 753 mmHg 56%
13:00 +25°C° 0 mm 3 mps 753 mmHg 56%
14:00 +25°C° 0 mm 3 mps 752 mmHg 55%
15:00 +25°C° 0 mm 3 mps 752 mmHg 59%
16:00 +24°C° 0 mm 3 mps 752 mmHg 62%
17:00 +24°C° 0 mm 2 mps 752 mmHg 65%
18:00 +21°C° 0 mm 2 mps 752 mmHg 69%
19:00 +21°C° 0 mm 1 mps 751 mmHg 73%
20:00 +19°C° 0 mm 1 mps 751 mmHg 77%
21:00 +19°C° 0 mm 1 mps 751 mmHg 79%
22:00 +18°C° 0 mm 1 mps 751 mmHg 80%
23:00 +18°C° 0 mm 1 mps 751 mmHg 82%

9 August, Sunday

Time Temperature Precipitation Wind Pressure Humidity
00:00 +16°C° 0 mm 1 mps 751 mmHg 84%
01:00 +16°C° 0 mm 1 mps 751 mmHg 85%
02:00 +16°C° 0 mm 2 mps 751 mmHg 87%
03:00 +16°C° 0 mm 2 mps 751 mmHg 88%
04:00 +16°C° 0 mm 2 mps 750 mmHg 90%
05:00 +16°C° 0 mm 2 mps 750 mmHg 92%
06:00 +17°C° 0 mm 2 mps 750 mmHg 87%
07:00 +19°C° 0 mm 3 mps 750 mmHg 82%
08:00 +21°C° 0 mm 3 mps 750 mmHg 77%
09:00 +22°C° 0 mm 3 mps 750 mmHg 73%
10:00 +23°C° 0 mm 4 mps 750 mmHg 68%
11:00 +25°C° 0 mm 4 mps 750 mmHg 63%
12:00 +25°C° 0.1 mm 4 mps 750 mmHg 63%
13:00 +25°C° 0.1 mm 4 mps 749 mmHg 62%
14:00 +26°C° 0.1 mm 4 mps 749 mmHg 62%
15:00 +25°C° 0.1 mm 4 mps 749 mmHg 64%
16:00 +25°C° 0.1 mm 3 mps 749 mmHg 67%
17:00 +25°C° 0.1 mm 3 mps 749 mmHg 69%
18:00 +22°C° 0 mm 3 mps 749 mmHg 72%
19:00 +21°C° 0 mm 3 mps 749 mmHg 75%
20:00 +19°C° 0 mm 2 mps 749 mmHg 78%
21:00 +18°C° 0 mm 2 mps 749 mmHg 80%
22:00 +17°C° 0 mm 2 mps 749 mmHg 83%
23:00 +17°C° 0 mm 2 mps 749 mmHg 86%

10 August, Monday

Time Temperature Precipitation Wind Pressure Humidity
00:00 +16°C° 0 mm 2 mps 749 mmHg 87%
01:00 +16°C° 0 mm 2 mps 749 mmHg 89%
02:00 +16°C° 0 mm 2 mps 749 mmHg 91%
03:00 +15°C° 0 mm 2 mps 750 mmHg 89%
04:00 +15°C° 0 mm 2 mps 750 mmHg 88%
05:00 +15°C° 0 mm 2 mps 750 mmHg 87%
06:00 +16°C° 0 mm 2 mps 750 mmHg 80%
07:00 +18°C° 0 mm 2 mps 750 mmHg 73%
08:00 +20°C° 0 mm 2 mps 750 mmHg 66%
09:00 +21°C° 0 mm 3 mps 750 mmHg 62%
10:00 +22°C° 0 mm 3 mps 750 mmHg 58%
11:00 +24°C° 0 mm 3 mps 750 mmHg 55%
12:00 +24°C° 0 mm 3 mps 750 mmHg 54%
13:00 +25°C° 0 mm 3 mps 750 mmHg 53%
14:00 +25°C° 0 mm 3 mps 749 mmHg 52%
15:00 +25°C° 0 mm 2 mps 749 mmHg 55%
16:00 +25°C° 0 mm 2 mps 749 mmHg 58%
17:00 +25°C° 0 mm 1 mps 749 mmHg 61%
18:00 +23°C° 0 mm 1 mps 749 mmHg 65%
19:00 +21°C° 0 mm 1 mps 749 mmHg 70%
20:00 +17°C° 0 mm 0 mps 749 mmHg 75%
21:00 +19°C° 0 mm 1 mps 749 mmHg 76%
22:00 +19°C° 0 mm 1 mps 749 mmHg 78%
23:00 +18°C° 0 mm 1 mps 749 mmHg 79%

11 August, Tuesday

Time Temperature Precipitation Wind Pressure Humidity
00:00 +18°C° 0 mm 1 mps 749 mmHg 82%
01:00 +17°C° 0 mm 2 mps 749 mmHg 84%
02:00 +17°C° 0 mm 2 mps 749 mmHg 87%
03:00 +17°C° 0 mm 2 mps 749 mmHg 89%
04:00 +17°C° 0 mm 2 mps 749 mmHg 91%
05:00 +17°C° 0 mm 2 mps 749 mmHg 93%
06:00 +18°C° 0 mm 2 mps 749 mmHg 89%
07:00 +20°C° 0 mm 3 mps 749 mmHg 84%
08:00 +22°C° 0 mm 3 mps 749 mmHg 79%
09:00 +24°C° 1.1 mm 3 mps 748 mmHg 75%
10:00 +25°C° 1.1 mm 3 mps 748 mmHg 70%
11:00 +26°C° 1.1 mm 4 mps 748 mmHg 66%
12:00 +26°C° 1.1 mm 4 mps 748 mmHg 66%
13:00 +27°C° 1.1 mm 4 mps 748 mmHg 65%
14:00 +27°C° 1.1 mm 3 mps 748 mmHg 65%
15:00 +26°C° 1.4 mm 3 mps 748 mmHg 69%
16:00 +25°C° 1.4 mm 3 mps 748 mmHg 74%
17:00 +24°C° 1.4 mm 3 mps 748 mmHg 78%
18:00 +21°C° 0 mm 3 mps 748 mmHg 82%
19:00 +20°C° 0 mm 4 mps 748 mmHg 85%
20:00 +18°C° 0 mm 4 mps 748 mmHg 89%
21:00 +17°C° 0 mm 3 mps 748 mmHg 90%
22:00 +16°C° 0 mm 3 mps 748 mmHg 91%
23:00 +14°C° 0 mm 3 mps 748 mmHg 92%
Show more